www.pogodaiklimat.ru

Погода и климат >> Архив погоды >> КНДР >> Чунган


ПОГОДА в Чунгане

  • Прогноз погоды в Чунгане
  • Монитор погоды в Чунгане

АРХИВ ПОГОДЫ в Чунгане

Время (UTC), дата Ветер
(напр.,м/с)
 
Видим.   Явления Облачность Т
(С)
Тd
(С)
f
(%)
Тe
(С)
Тes
(С)
Комфортность P
(гПа)
Po
(гПа)
Тmin
(С)
Tmax
(С)
R
(мм)
R24
(мм)
S
(см)
09 17.04 ЮЗ 9 15 км 10/0 1500 м
[As op]
+18.7 +1.1 31 +18 +18 1003.8 966.4
12 17.04 ЮЗ 8 15 км 10/0 1500 м
[As op]
+15.8 +0.4 35 +14 +14 1003.6 965.9 +21.5
15 17.04 ЮЗ 9 15 км 10/0 1500 м
[As op]
+14.5 +2.7 45 +12 +12 1004.6 966.7
18 17.04 ЮЗ 8 15 км 10/0 1500 м
[As op]
+11.9 +7.1 72 +9 +9 1007.2 968.7
21 17.04 штиль 0 10 км слаб. дождь 10/0 600 м
[As op]
+9.5 +7.7 89 +9 +9 1008.1 969.3 0.0
00 18.04 С 3 10 км в посл. час дождь 10/10 600 м
[Sc]
+6.1 +1.9 74 +3 +3 1014.0 974.4 +5.9 0.2
03 18.04 СЗ 3 15 км 8/8 600 м
[Sc]
+7.5 -0.2 58 +5 +8 1016.8 977.5
06 18.04 СЗ 3 15 км 8/8 600 м
[Sc]
+9.3 -0.9 49 +7 +9 1017.8 978.4
09 18.04 ЮЗ 2 15 км 3/3 600 м
[Sc]
+8.5 -2.5 46 +7 +8 1018.8 979.4
12 18.04 штиль 0 15 км ясно +3.7 -4.0 57 +3 +3 1020.5 980.5 +15.5
15 18.04 штиль 0 15 км ясно -0.2 -4.7 72 -1 -1 1022.6 982.0
18 18.04 штиль 0 15 км 8/0
[Ci fib]
-2.4 -5.0 82 -3 -3 1023.3 982.3
21 18.04 штиль 0 15 км 10/0
[Ci fib]
-2.8 -4.1 91 -4 -4 1024.2 983.1
00 19.04 штиль 0 15 км 10/10 600 м
[Sc]
+0.4 -1.6 86 -1 -1 1024.8 984.2 -4.0
03 19.04 штиль 0 20 км ясно +9.9 +1.9 57 +10 +32 опасность
простуды
1023.6 984.2
06 19.04 ЮЗ 2 20 км ясно +16.7 -2.7 26 +17 +29 опасность
простуды
1019.4 981.2
09 19.04 ЮЗ 2 20 км ясно +17.7 -6.0 19 +18 +20 1016.4 978.3
12 19.04 штиль 0 20 км ясно +7.6 -5.7 38 +8 +8 1018.2 978.7 +19.5
15 19.04 штиль 0 15 км ясно +3.4 -4.0 58 +3 +3 1019.7 979.5
18 19.04 штиль 0 15 км ясно -0.2 -4.3 74 -1 -1 1019.8 979.2
21 19.04 штиль 0 15 км 10/10 600 м
[Sc]
-0.2 -2.9 82 -1 -1 1019.7 979.1
00 20.04 штиль 0 15 км 10/10 600 м
[Sc]
+2.4 -0.9 79 +1 +1 1018.3 978.0 -1.0
03 20.04 штиль 0 10 км в посл. час снег 10/10 600 м
[Sc]
+3.2 +0.6 83 +2 +2 1018.2 978.0 0.6
06 20.04 штиль 0 10 км слаб. дождь 10/0 600 м
[As op]
+3.2 +2.7 97 +2 +5 1016.4 976.4 3
09 20.04 штиль 0 10 км слаб. дождь 10/0 600 м
[As op]
+3.9 +2.9 93 +3 +3 1016.0 976.0 0.0
12 20.04 штиль 0 15 км 10/10 600 м
[Sc]
+4.1 +2.9 92 +3 +3 1016.5 976.7 +4.5 4
15 20.04 штиль 0 15 км 10/10 600 м
[Sc]
+4.1 +2.6 90 +3 +3 1017.5 977.8
18 20.04 штиль 0 15 км 10/10 600 м
[Sc]
+3.9 +2.4 90 +3 +3 1017.4 977.8
21 20.04 штиль 0 15 км 10/10 600 м
[Sc]
+3.9 +2.4 90 +3 +3 1017.8 978.0
00 21.04 штиль 0 500 м туман ?/? +6.3 +6.1 99 +5 +5 1018.0 978.2 +3.5
03 21.04 штиль 0 15 км 8/8 600 м
[Sc]
+14.0 +8.6 70 +14 +18 1018.1 979.5
06 21.04 СЗ 2 15 км 10/10 600 м
[Sc]
+17.9 +7.4 50 +18 +18 1013.8 975.9
09 21.04 СЗ 2 15 км 5/0
[Ci fib]
+17.7 +1.3 33 +18 +20 1014.2 976.3
12 21.04 штиль 0 20 км ясно +11.3 +0.4 47 +11 +11 1016.1 977.2 +19.1
15 21.04 штиль 0 20 км ясно +4.7 -0.4 69 +4 +4 1018.6 978.7
18 21.04 штиль 0 20 км ясно +2.2 -1.2 78 +1 +1 1020.0 979.7
21 21.04 штиль 0 15 км 10/10 600 м
[Sc]
+0.8 -0.9 88 -0 -0 1021.7 981.2
00 22.04 СВ 2 15 км 10/10 600 м
[Sc]
+3.5 +1.2 85 +1 +1 1020.9 980.9 +0.8
03 22.04 штиль 0 15 км 10/10 600 м
[Sc]
+6.3 +2.9 79 +5 +5 1020.1 980.3
06 22.04 штиль 0 15 км 10/0 1500 м
[As op]
+14.0 +7.0 63 +14 +17 1015.2 976.8
09 22.04 штиль 0 20 км 8/0
[Ci fib]
+18.8 +7.1 46 +19 +21 1011.5 974.6
12 22.04 штиль 0 15 км 8/0
[Ci fib]
+12.9 +5.5 61 +13 +13 1012.5 973.9 +19.5
15 22.04 штиль 0 15 км ясно +9.9 +5.5 74 +9 +9 1015.0 974.7
18 22.04 штиль 0 15 км ясно +7.4 +4.1 80 +7 +7 1014.1 974.7
21 22.04 штиль 0 15 км ясно +5.9 +3.5 85 +5 +5 1014.3 974.7
00 23.04 штиль 0 15 км ясно +12.2 +9.0 81 +12 +22 1014.3 975.6 +4.0
03 23.04 ЮЗ 3 15 км 8/0
[Ci fib]
+24.1 +13.5 52 +26 +38 жарко 1012.1 974.9
06 23.04 ЮЗ 6 15 км 8/4 600 м
[Sc Ci fib]
+25.8 +14.7 50 +28 +31 жарко 1010.3 973.4
09 23.04 штиль 0 15 км ясно +24.0 +12.9 50 +26 +28 жарко 1009.6 972.7
12 23.04 штиль 0 15 км ясно +18.6 +10.4 59 +19 +19 1009.9 972.3 +26.5
15 23.04 штиль 0 15 км ясно +13.1 +10.0 81 +13 +13 1012.5 973.9
18 23.04 штиль 0 15 км 10/0 1500 м
[As op]
+12.1 +10.2 88 +12 +12 1012.6 973.9
21 23.04 штиль 0 15 км 10/0 1500 м
[As op]
+10.7 +9.7 94 +10 +10 1013.6 974.7
00 24.04 СВ 3 15 км 10/10 600 м
[Sc]
+13.7 +8.1 69 +13 +13 1013.3 974.9 +8.5
03 24.04 СВ 3 15 км 10/0 1500 м
[As op]
+14.1 +2.9 47 +13 +16 1014.5 976.1
06 24.04 штиль 0 15 км 10/0 1500 м
[As op]
+11.9 +0.6 46 +12 +15 1015.5 976.8

 

Местоположение метеостанции Чунган (КНДР): широта 41.78 долгота 126.88 высота над уровнем моря 331 м.

В архиве по умолчанию представлена погода в Чунгане за последнюю неделю. Архивные данные за месяц целиком и за предыдущие месяцы, начиная с января 2011 года, Вы можете получить, выбрав интересующий диапазон дат из раскрывающегося списка и нажав кнопку "Ввод!".


*Определитесь, кто Вы:
робот инопланетянин человек

Внимание! Время в таблицах - всемирное. Для получения местного времени необходимо прибавить поправку, которая равна 9 ч.

Смотрите также архив погоды в соседних городах и на ближайших метеорологических станциях:

Погода в Линьцзяне (Гирин, Китай) (7 км)
Погода в Канге (КНДР) (93 км)
Погода в Цзиане (Цзяньси, Китай) (97 км)
Погода в Хесене (КНДР) (115 км)
Погода в Чанбае (Гирин, Китай) (117 км)
Погода в Самджиёне (КНДР) (118 км)
Погода в Хуадяне (Гирин, Китай) (134 км)
Погода в Пунгсане (КНДР) (151 км)
Погода в Джангджине (КНДР) (160 км)
Погода в Цинъюане (Гуандун, Китай) (164 км)

Пояснения к столбцам:

Ветер - указаны скорость ветра в м/с - средняя за 10 мин, порывы в срок и между сроками (в фигурных скобках) и направление, откуда дует ветер: С - северный, СВ - северо-восточный, В - восточный, ЮВ - юго-восточный, Ю - южный, ЮЗ - юго-западный, З - западный, СЗ - северо-западный.
Видимость - горизонтальная дальность видимости в метрах или километрах. При видимости от 1 до 10 км при отсутствии осадков обычно наблюдается дымка, при ухудшении видимости до 1 км и менее - туман. В сухую погоду видимость может ухудшаться дымом, пылью или мглою.
Явления - указаны атмосферные явления, наблюдавшиеся в срок или в последний час перед сроком; фигурными скобками обозначены явления, наблюдавшиеся между сроками (за 1-3 часа до срока); квадратными скобками обозначены град или гололедные отложения с указанием их диаметра в мм.
Облачность - указаны через наклонную черту общая и нижняя облачность в баллах и высота нижней границы облаков в метрах; квадратными скобками обозначены формы облаков: Ci - перистые, Cs - перисто-слоистые, Cc - перисто-кучевые, Ac - высококучевые, As - высокослоистые, Sc - слоисто-кучевые, Ns - слоисто-дождевые, Cu - кучевые, Cb - кучево-дождевые. Подробнее классификацию облаков см. в Атласе облаков (PDF).
T - Температура воздуха - температура, измеренная на высоте 2 м над землей.
Td - Температура точки росы - температура, при понижении до которой содержащийся в воздухе водяной пар достигнет насыщения.
f - Относительная влажность воздуха - влажноcть воздуха, измеренная на высоте 2 м над землей.
Te - Эффективная температура - температура, которую ощущает одетый по сезону человек в тени. Характеристика душности погоды. При расчете учитывается влияние влажности воздуха и скорости ветра на теплоощущения человека.
Tes - Эффективная температура на солнце - температура, которую ощущает человек, с поправкой на солнечный нагрев. Характеристика знойности погоды. Зависит от высоты солнца над горизонтом, облачности и скорости ветра. Ночью, в пасмурную погоду, а также при ветре 12 м/с и более поправка равна нулю.
P - Атмосферное давление - приведенное к уровню моря атмосферное давление.
Po - Атмосферное давление - измеренное на уровне метеостанции атмосферное давление.
Tmin - Минимальная температура - минимум температуры воздуха на высоте 2 м над землей.
Tmax - Максимальная температура - максимум температуры воздуха на высоте 2 м над землей.
R - Количество осадков - Количество выпавших осадков за период времени, мм. При наведении курсора мыши на число - период времени, за который выпало указанное количество осадков.
R24 - Количество осадков - Количество выпавших осадков за 24 часа, мм.
S - Снежный покров - Высота снежного покрова, см. При наведении курсора мыши на число - состояние снежного покрова и степень покрытия местности в баллах.